AWW12Z EGFF-EGFH

Flight info

Callsign AWW12Z
Flight time 0h 19m
Altitude 10000
Route OGPUV
Aircraft AT45/M-SDFGIRY/S

Departure

Time 2026-05-04 12:50
Airport Cardiff International Airport (EGFF)

Arrival

Time 2026-05-04 13:10
Airport Swansea Airport (EGFH)
Time Latitude Longitude Altitude Speed Heading
2026-05-04 12:34 51.39942 -3.34115 220 ft 0 kts 117°
2026-05-04 12:46 51.39953 -3.34152 220 ft 9 kts 112°
2026-05-04 12:46 51.39959 -3.34202 218 ft 0 kts 147°
2026-05-04 12:47 51.39960 -3.34204 218 ft 0 kts 178°
2026-05-04 12:47 51.39962 -3.34205 218 ft 0 kts 204°
2026-05-04 12:47 51.39929 -3.34234 218 ft 13 kts 207°
2026-05-04 12:47 51.39851 -3.34299 218 ft 9 kts 220°
2026-05-04 12:48 51.39868 -3.34400 218 ft 12 kts 297°
2026-05-04 12:48 51.39906 -3.34521 220 ft 12 kts 296°
2026-05-04 12:48 51.39934 -3.34643 220 ft 11 kts 251°
2026-05-04 12:48 51.39873 -3.34699 219 ft 12 kts 208°
2026-05-04 12:49 51.39806 -3.34763 223 ft 5 kts 199°
2026-05-04 12:49 51.39790 -3.34739 219 ft 6 kts 115°
2026-05-04 12:49 51.39789 -3.34735 219 ft 0 kts 116°
2026-05-04 12:50 51.39784 -3.34720 219 ft 14 kts 116°
2026-05-04 12:50 51.39651 -3.34300 219 ft 74 kts 117°
2026-05-04 12:50 51.39342 -3.33318 482 ft 109 kts 114°
2026-05-04 12:50 51.39001 -3.32292 882 ft 111 kts 115°
2026-05-04 12:51 51.38625 -3.31020 1136 ft 139 kts 112°
2026-05-04 12:51 51.38187 -3.29504 1406 ft 164 kts 111°
2026-05-04 12:51 51.37661 -3.27730 1718 ft 187 kts 113°
2026-05-04 12:51 51.37058 -3.25767 2017 ft 204 kts 114°
2026-05-04 12:52 51.36412 -3.23726 2293 ft 204 kts 116°
2026-05-04 12:52 51.35784 -3.21760 2702 ft 195 kts 116°
2026-05-04 12:52 51.35470 -3.19763 3206 ft 182 kts 85°
2026-05-04 12:52 51.36064 -3.18099 3713 ft 176 kts 36°
2026-05-04 12:53 51.37220 -3.17768 4241 ft 170 kts 347°
2026-05-04 12:53 51.38343 -3.18228 4673 ft 169 kts 352°
2026-05-04 12:53 51.39543 -3.18474 4929 ft 179 kts 356°
2026-05-04 12:53 51.40810 -3.18694 5191 ft 187 kts 355°
2026-05-04 12:54 51.42126 -3.18938 5447 ft 193 kts 354°
2026-05-04 12:54 51.43470 -3.19245 5700 ft 197 kts 354°
2026-05-04 12:54 51.44841 -3.19574 5967 ft 201 kts 353°
2026-05-04 12:54 51.46235 -3.19906 6230 ft 204 kts 353°
2026-05-04 12:55 51.47644 -3.20264 6486 ft 206 kts 353°
2026-05-04 12:55 51.49067 -3.20625 6732 ft 208 kts 353°
2026-05-04 12:55 51.50503 -3.20979 6971 ft 209 kts 353°
2026-05-04 12:55 51.51947 -3.21329 7234 ft 211 kts 353°
2026-05-04 12:56 51.53403 -3.21673 7470 ft 212 kts 353°
2026-05-04 12:56 51.54867 -3.22037 7724 ft 214 kts 352°
2026-05-04 12:56 51.56329 -3.22408 7880 ft 219 kts 352°
2026-05-04 12:56 51.57859 -3.22775 7953 ft 226 kts 353°
2026-05-04 12:57 51.59440 -3.23136 7988 ft 233 kts 353°
2026-05-04 12:57 51.61066 -3.23502 8024 ft 239 kts 353°
2026-05-04 12:57 51.62732 -3.23886 8021 ft 244 kts 352°
2026-05-04 12:57 51.64428 -3.24290 8026 ft 248 kts 353°
2026-05-04 12:58 51.66140 -3.24700 8030 ft 250 kts 352°
2026-05-04 12:58 51.67866 -3.25126 8028 ft 251 kts 352°
2026-05-04 12:58 51.69011 -3.25417 8028 ft 252 kts 352°
2026-05-04 12:58 51.71242 -3.26466 8029 ft 252 kts 326°
2026-05-04 12:59 51.72268 -3.28673 8030 ft 249 kts 281°
2026-05-04 12:59 51.72090 -3.31357 8033 ft 240 kts 250°
2026-05-04 12:59 51.71629 -3.33962 8031 ft 243 kts 251°
2026-05-04 12:59 51.71137 -3.36579 8036 ft 245 kts 250°
2026-05-04 13:00 51.70614 -3.39205 8031 ft 246 kts 251°
2026-05-04 13:00 51.70112 -3.41860 8016 ft 249 kts 253°
2026-05-04 13:00 51.69664 -3.44561 8023 ft 250 kts 255°
2026-05-04 13:00 51.69249 -3.47299 8021 ft 252 kts 256°
2026-05-04 13:01 51.68840 -3.50018 8013 ft 253 kts 256°
2026-05-04 13:01 51.68424 -3.52782 8020 ft 254 kts 255°
2026-05-04 13:01 51.68003 -3.55572 7871 ft 260 kts 256°
2026-05-04 13:01 51.67549 -3.58479 7501 ft 273 kts 255°
2026-05-04 13:02 51.67077 -3.61481 7123 ft 281 kts 255°
2026-05-04 13:02 51.66586 -3.64542 6758 ft 280 kts 255°
2026-05-04 13:02 51.66116 -3.67523 6412 ft 270 kts 255°
2026-05-04 13:02 51.65663 -3.70427 6020 ft 264 kts 255°
2026-05-04 13:03 51.65210 -3.73263 5595 ft 259 kts 254°
2026-05-04 13:03 51.64767 -3.76062 5208 ft 256 kts 255°
2026-05-04 13:03 51.64330 -3.78828 4846 ft 253 kts 255°
2026-05-04 13:03 51.63891 -3.81560 4482 ft 251 kts 255°
2026-05-04 13:04 51.63445 -3.84270 4102 ft 249 kts 254°
2026-05-04 13:04 51.63013 -3.86927 3761 ft 248 kts 255°
2026-05-04 13:04 51.62628 -3.89620 3413 ft 246 kts 257°
2026-05-04 13:04 51.62293 -3.92316 3045 ft 245 kts 258°
2026-05-04 13:05 51.61963 -3.94972 2676 ft 232 kts 258°
2026-05-04 13:05 51.61677 -3.97376 2291 ft 208 kts 258°
2026-05-04 13:05 51.61400 -3.99551 1752 ft 196 kts 258°
2026-05-04 13:05 51.61157 -4.01594 1488 ft 176 kts 258°
2026-05-04 13:06 51.60899 -4.03440 1307 ft 162 kts 253°
2026-05-04 13:06 51.60621 -4.05002 1314 ft 134 kts 251°
2026-05-04 13:06 51.60347 -4.06451 1222 ft 137 kts 262°
2026-05-04 13:06 51.60521 -4.07952 1205 ft 137 kts 292°
2026-05-04 13:07 51.60856 -4.09359 1245 ft 131 kts 290°
2026-05-04 13:07 51.61164 -4.10665 1332 ft 119 kts 291°
2026-05-04 13:07 51.61447 -4.11898 1326 ft 116 kts 292°
2026-05-04 13:07 51.61707 -4.13112 1278 ft 115 kts 289°
2026-05-04 13:08 51.61932 -4.14345 1214 ft 113 kts 280°
2026-05-04 13:08 51.61642 -4.15377 1181 ft 107 kts 199°
2026-05-04 13:08 51.60968 -4.15203 1097 ft 100 kts 136°
2026-05-04 13:08 51.60690 -4.14200 1057 ft 98 kts 96°
2026-05-04 13:09 51.60577 -4.13163 1107 ft 93 kts 101°
2026-05-04 13:09 51.60458 -4.12075 1064 ft 104 kts 98°
2026-05-04 13:09 51.60350 -4.10865 876 ft 111 kts 95°
2026-05-04 13:09 51.60269 -4.09682 605 ft 111 kts 98°
2026-05-04 13:10 51.60183 -4.08479 405 ft 103 kts 96°
2026-05-04 13:10 51.60099 -4.07322 265 ft 99 kts 96°
2026-05-04 13:10 51.60068 -4.06851 271 ft 21 kts 96°
2026-05-04 13:10 51.60057 -4.06685 269 ft 4 kts 99°
2026-05-04 13:11 51.60053 -4.06655 268 ft 1 kts 102°
2026-05-04 13:11 51.60052 -4.06605 268 ft 8 kts 72°
2026-05-04 13:11 51.60050 -4.06586 268 ft 1 kts 160°
2026-05-04 13:11 51.60047 -4.06588 267 ft 0 kts 202°
2026-05-04 13:12 51.60045 -4.06591 267 ft 0 kts 232°
2026-05-04 13:12 51.60045 -4.06600 267 ft 3 kts 271°
2026-05-04 13:12 51.60056 -4.06694 269 ft 14 kts 276°
2026-05-04 13:12 51.60068 -4.06854 271 ft 9 kts 296°
2026-05-04 13:13 51.60132 -4.06930 271 ft 13 kts 325°
2026-05-04 13:13 51.60161 -4.06931 273 ft 5 kts 51°
2026-05-04 13:13 51.60187 -4.06870 274 ft 9 kts 55°
2026-05-04 13:13 51.60204 -4.06811 274 ft 3 kts 127°
2026-05-04 13:14 51.60161 -4.06798 272 ft 11 kts 165°
2026-05-04 13:14 51.60152 -4.06802 271 ft 1 kts 239°
2026-05-04 13:14 51.60154 -4.06814 271 ft 0 kts 287°